Helicity
8 14 11 21 8 -0 -3 15 26 33 30 35 22 14 17 12 -37 -32 21 -10 27 28 55 146 257 274 361 418 378 411 306 207 178 176 196 198 230 218 257 238 252 215 189 195 182 175 156
22 16 5 23 19 11 8 13 15 13 43 57 76 21 35 60 42 -19 -3 -7 -10 9 -21 125 511 413 274 476 689 506 319 206 218 177 209 196 182 154 236 256 216 188 181 171 183 155 138
16 19 19 5 20 14 12 16 9 8 20 48 72 19 36 67 72 26 18 31 5 -9 31 158 352 607 635 334 642 567 300 274 230 177 203 190 156 174 205 209 172 165 192 176 175 130 104
35 21 18 22 19 19 16 10 5 7 1 1 22 21 30 59 59 88 32 59 48 46 39 9 165 433 384 586 562 340 317 299 236 188 132 159 127 156 231 181 241 182 172 152 139 127 108
55 23 18 21 23 22 15 20 6 12 3 -15 1 9 11 32 71 142 167 94 47 93 89 78 142 328 338 405 288 335 211 217 238 206 169 128 123 180 196 199 255 245 154 149 153 103 108
57 42 16 16 23 30 23 14 18 22 26 -16 -13 -7 42 66 65 17 49 141 147 90 86 95 122 200 218 217 262 303 208 187 190 196 192 165 141 161 191 191 175 154 163 152 133 120 96
56 51 25 17 23 23 32 24 23 31 38 8 -20 -11 37 74 90 35 17 115 174 340 292 83 172 139 188 239 195 192 174 173 167 167 165 188 184 197 175 151 118 131 139 125 134 102 94
61 45 41 19 27 30 30 36 29 24 33 27 4 -1 12 40 87 56 94 151 198 199 117 154 133 151 175 163 126 161 94 102 122 170 158 180 197 162 136 134 127 150 141 143 109 81 68
55 41 35 31 24 27 30 29 33 30 31 41 29 12 31 36 66 43 136 107 131 157 172 154 160 146 165 150 160 169 114 104 126 177 180 140 134 140 106 136 143 159 128 130 94 97 68
64 58 44 31 21 23 28 31 31 32 32 45 45 27 25 37 17 41 41 49 59 124 44 118 90 -9 2 -41 59 84 85 32 62 50 156 174 150 113 124 136 116 114 97 90 82 68 -1
55 65 54 40 32 16 22 28 31 34 39 39 48 46 44 25 65 18 44 28 7 15 79 29 54 113 81 -2 -31 71 89 77 18 31 47 65 102 113 106 91 79 53 65 59 50 39 46
39 49 59 51 37 32 16 24 26 28 37 46 46 50 54 59 42 36 39 30 46 64 90 -47 81 74 63 10 28 50 61 58 56 83 90 66 76 76 64 69 63 42 54 70 63 57 102
25 34 44 51 47 37 36 22 23 24 23 43 62 64 92 90 69 37 39 68 54 45 70 73 55 62 75 61 61 33 69 59 39 38 54 66 56 35 23 41 39 38 60 76 78 99 52
13 21 35 36 43 49 40 39 21 19 28 28 56 103 117 131 84 51 34 39 4 75 58 41 48 55 44 63 71 60 60 63 59 42 28 39 70 14 9 18 28 42 39 54 31 57 65
13 11 19 31 32 46 56 51 40 24 17 40 55 95 110 104 88 73 28 -3 38 57 35 23 46 37 40 46 46 51 64 54 40 26 20 18 25 18 2 14 22 27 57 27 61 49 65
17 9 9 22 23 34 55 62 55 41 22 25 61 55 85 94 95 64 31 39 4 27 34 35 46 44 15 40 25 27 48 53 40 27 18 12 23 12 3 6 23 4 -21 22 22 -17 -23
12 12 6 5 12 23 53 54 57 42 25 36 35 38 73 57 56 23 46 34 28 24 25 44 41 35 38 41 35 47 50 55 59 44 31 18 8 15 -2 12 16 -9 -8 -10 2 21 9
4 13 6 1 2 7 39 56 45 32 34 40 50 28 47 39 23 37 31 25 17 25 20 26 28 23 29 33 42 52 59 58 74 56 39 41 27 33 45 14 19 29 51 100 55 39 63
3 9 8 6 4 6 9 43 47 27 45 75 61 52 37 28 30 15 21 17 24 21 25 12 11 -1 -12 6 20 25 26 16 50 42 41 36 27 19 22 13 31 80 99 122 102 89 116
10 7 11 11 13 18 20 26 38 19 46 66 66 42 32 30 36 43 29 17 13 9 14 11 10 -2 -2 10 13 17 23 19 34 25 20 15 32 52 49 26 37 61 72 143 188 127 119
15 9 4 6 15 28 41 41 42 32 48 67 47 67 54 34 34 40 35 45 33 28 18 5 3 11 8 18 13 22 13 10 30 45 50 26 22 15 30 33 46 98 98 161 290 269 258
15 13 8 5 4 11 19 38 61 75 27 78 104 83 54 43 35 32 38 53 59 28 26 18 29 15 13 18 26 20 18 22 22 48 70 62 8 -41 -9 -25 -23 33 86 149 234 281 271
27 28 26 22 26 23 23 39 62 90 26 62 59 57 67 56 47 56 45 47 49 60 40 37 36 8 9 24 8 -0 6 12 39 87 93 120 53 -0 3 -43 -60 22 57 134 173 244 251
19 18 19 26 39 47 53 54 60 78 51 22 32 82 86 73 72 55 48 42 39 38 41 63 80 77 52 52 -8 32 54 51 82 122 174 173 119 66 31 -31 34 40 31 62 100 95 172
38 30 22 35 53 70 91 101 107 111 97 76 41 49 80 72 83 54 44 47 26 23 34 31 51 73 80 62 31 20 63 77 79 92 100 179 169 74 46 51 55 28 65 69 56 43 94
55 58 49 58 72 83 90 101 106 106 101 77 61 35 65 82 60 67 75 58 56 57 43 40 50 70 93 72 68 67 62 71 68 95 123 134 137 177 148 104 40 61 67 85 61 48 57
52 61 60 60 87 112 88 82 76 80 86 56 46 34 63 81 57 87 65 63 71 68 62 46 55 76 109 93 70 68 72 81 76 100 106 178 175 167 130 157 79 90 112 83 77 52 131
50 49 66 77 93 91 92 76 61 52 58 52 44 33 44 48 59 87 75 94 98 83 86 66 78 90 119 110 81 69 91 85 89 93 79 130 167 163 149 137 24 110 149 117 71 125 133
150 105 61 86 81 80 87 70 50 49 59 71 67 39 51 47 45 80 97 129 145 127 100 85 86 87 85 118 84 82 111 138 142 125 153 140 141 133 168 132 112 142 190 118 152 136 118
Wind_Speed
63 63 67 66 65 65 66 64 56 61 75 78 68 54 53 18 43 44 55 48 67 48 17 10 17 43 29 28 21 31 30 30 31 32 31 32 37 35 41 35 32 32 31 28 26 27 29
61 61 62 63 63 61 63 55 48 55 65 73 56 51 40 20 31 59 58 54 41 22 28 15 16 40 32 27 26 24 25 22 24 29 29 28 34 28 30 33 35 30 26 28 32 33 36
58 60 60 58 59 60 59 51 45 52 57 63 56 51 45 27 18 30 47 56 18 48 26 21 18 22 25 19 22 21 13 14 18 26 27 26 26 32 29 29 27 27 35 36 38 39 40
61 58 58 56 54 57 57 52 43 46 51 57 57 54 50 52 39 20 24 20 15 31 61 40 18 18 31 26 20 6 15 9 11 15 16 20 16 18 29 24 30 37 39 49 45 43 42
63 55 55 53 51 52 54 51 43 42 45 50 53 56 51 46 38 31 22 26 3 33 45 52 42 38 26 20 9 13 13 18 21 17 16 18 22 24 26 31 38 42 51 52 50 42 45
59 57 53 51 48 49 49 51 41 40 41 46 52 57 59 47 38 42 50 40 22 19 36 35 35 32 35 27 29 20 18 16 20 23 25 25 26 29 29 36 52 49 47 47 52 47 49
56 57 53 49 47 46 48 47 44 34 34 37 45 49 47 49 45 43 48 42 27 32 34 38 45 47 44 38 39 25 19 15 17 21 31 28 28 29 30 30 32 33 39 44 44 43 54
58 56 54 50 48 44 45 45 43 36 31 30 33 39 43 41 49 54 62 41 26 44 36 26 38 44 40 37 28 17 31 16 15 17 27 30 31 32 32 29 27 31 36 43 44 44 55
57 57 52 48 45 43 41 44 41 38 31 29 28 29 33 31 39 37 48 49 32 17 13 16 17 16 28 27 15 10 16 32 3 11 22 31 33 34 32 29 28 33 38 44 50 56 52
53 57 53 49 45 43 40 41 41 38 34 30 28 26 25 29 38 31 32 27 25 26 12 24 20 38 21 41 11 11 13 17 13 5 13 23 30 29 28 30 35 38 38 41 47 53 60
52 56 55 50 44 41 38 34 37 38 35 33 29 26 26 32 41 38 27 23 24 26 13 26 29 15 18 30 26 20 16 17 17 12 24 24 26 28 29 34 33 33 37 41 42 46 53
48 50 57 48 47 41 37 30 25 30 34 34 32 28 25 33 37 38 33 33 33 36 52 7 20 11 2 32 16 19 17 11 15 10 10 13 26 26 27 28 28 30 34 37 40 44 50
51 48 49 52 46 43 32 28 22 18 22 29 31 30 35 31 33 31 38 43 49 59 42 42 43 38 41 37 18 10 17 16 24 16 15 18 22 24 24 24 27 30 34 39 41 42 42
54 52 41 51 49 42 35 23 18 13 12 15 22 32 34 32 27 28 36 47 76 52 51 46 43 40 46 39 42 37 27 25 19 25 18 19 22 22 22 25 28 30 30 32 41 44 50
59 53 51 41 51 46 35 26 16 11 8 11 21 33 39 33 31 32 45 64 65 56 50 49 41 44 42 41 43 40 38 38 31 28 29 18 22 27 23 28 28 28 33 30 37 39 45
59 54 54 44 49 45 33 27 20 11 7 24 32 34 36 26 34 40 54 62 55 48 48 44 47 42 45 38 39 38 37 36 37 35 35 37 20 36 33 27 30 17 25 26 24 32 33
59 55 52 56 52 45 26 22 21 16 4 33 32 35 27 26 34 47 57 54 51 44 41 43 46 48 47 45 41 40 40 36 37 37 35 39 37 39 37 39 39 37 35 34 31 30 26
57 58 55 59 58 57 20 22 25 18 13 32 33 31 21 25 36 39 44 44 43 43 41 41 40 42 44 41 42 43 41 37 41 40 38 34 36 38 37 34 36 36 34 31 26 23 19
54 56 58 61 66 65 66 36 34 27 38 35 34 29 27 32 36 38 37 36 34 37 37 38 38 37 36 38 38 37 34 33 41 38 34 35 31 31 28 30 33 31 25 17 20 25 9
52 53 56 60 65 64 64 63 50 45 44 40 34 30 28 39 37 37 34 33 33 31 30 31 32 34 34 34 34 32 32 31 33 32 31 29 27 27 26 23 23 16 14 16 15 18 17
50 52 54 57 62 65 64 64 63 62 49 39 40 36 31 26 28 30 29 30 29 29 29 29 28 29 29 29 28 28 27 26 26 26 26 24 21 23 30 37 39 38 34 21 30 29 20
53 51 53 55 58 62 64 65 65 66 52 52 40 37 32 30 26 24 24 23 24 24 25 25 26 26 26 24 24 22 22 21 19 22 20 18 15 13 29 30 30 33 35 32 36 38 41
51 52 53 54 56 60 62 64 65 66 57 50 46 37 30 30 28 28 24 24 22 22 20 19 20 20 20 21 21 24 21 16 9 11 10 17 10 16 10 17 51 30 9 20 4 6 17
50 53 50 51 53 56 59 61 62 63 58 49 48 43 38 30 30 28 25 22 19 16 14 18 16 14 18 23 5 5 8 18 15 14 7 14 16 19 2 41 23 28 36 35 10 8 9
49 49 50 51 52 55 56 58 59 59 57 49 47 48 44 39 30 27 23 22 21 19 14 8 10 17 27 36 20 20 19 18 18 15 11 5 15 21 23 29 19 35 40 34 26 30 10
47 48 50 49 48 52 54 54 55 55 54 47 47 45 47 45 35 37 32 32 30 31 32 23 27 26 31 29 30 29 28 31 26 27 33 15 9 13 29 35 33 34 41 37 41 52 27
48 48 50 54 52 51 53 50 49 49 49 49 48 46 48 49 39 31 36 36 31 33 34 35 32 28 28 28 31 30 32 31 32 29 27 26 21 11 14 32 32 22 24 36 46 45 40
55 53 54 53 54 53 51 49 47 47 45 51 52 45 48 48 53 32 32 30 33 33 37 33 38 33 30 29 29 32 32 31 36 34 33 26 28 29 24 35 48 19 37 39 47 50 49
58 61 57 56 54 52 49 44 41 41 41 43 50 41 42 48 54 49 42 35 31 29 34 34 34 33 28 32 34 38 39 39 39 49 29 38 27 40 27 37 46 37 45 45 56 59 59
Wind_Direction
51 50 47 47 46 46 46 48 52 51 45 44 46 50 57 2 352 353 69 17 55 52 75 108 164 169 182 189 207 227 238 228 223 218 218 219 220 227 228 235 243 245 249 260 267 278 282
52 51 49 49 49 48 48 52 56 54 49 45 47 57 64 35 357 23 18 35 51 89 63 91 141 170 160 152 220 224 222 214 213 210 213 230 229 233 234 239 245 251 251 260 270 276 282
53 52 51 50 51 50 50 55 59 56 53 50 53 63 67 64 58 17 20 41 71 116 93 115 105 157 122 179 209 217 206 200 212 205 211 230 229 243 233 236 247 251 254 263 271 276 280
53 53 52 53 52 52 53 56 62 61 59 57 59 66 72 76 95 68 31 40 94 122 112 117 135 140 165 198 221 204 205 186 205 204 211 231 239 237 244 244 254 253 259 255 268 276 282
52 54 53 54 54 54 55 58 64 66 65 63 64 68 73 79 91 99 105 119 66 133 117 126 123 144 163 209 186 230 226 212 214 215 227 239 241 242 250 244 248 257 253 258 267 278 280
52 53 54 55 56 56 57 58 65 69 70 70 70 71 72 79 90 103 113 114 58 141 139 131 131 138 149 156 173 196 215 223 218 221 229 245 250 243 252 251 246 251 258 264 266 279 280
51 52 54 56 57 58 58 60 64 71 75 78 78 75 75 76 84 105 111 126 134 111 72 98 121 127 141 145 144 175 219 229 228 230 226 243 234 235 250 263 266 263 265 269 278 288 285
50 51 53 56 58 59 60 61 63 69 76 81 85 84 81 82 86 98 103 114 125 136 63 87 115 122 131 142 150 163 172 228 234 226 232 232 234 247 257 268 271 271 271 277 284 290 290
50 49 52 55 57 59 61 62 64 67 74 82 88 91 91 89 98 112 111 116 138 158 114 47 130 141 148 135 149 183 190 175 238 239 237 234 241 250 254 266 274 281 281 283 285 293 297
50 49 51 53 57 59 62 64 65 67 71 80 88 93 97 99 106 120 132 145 155 157 7 347 330 10 19 49 322 316 281 351 257 313 251 246 251 254 260 270 276 279 290 293 295 295 289
51 50 50 51 55 58 61 64 66 69 72 77 85 94 104 103 106 111 142 169 176 172 332 313 340 210 220 28 40 339 254 343 14 316 256 250 248 251 260 270 282 288 294 296 299 299 298
51 51 49 50 52 56 59 62 65 70 75 80 85 90 103 109 111 115 136 147 148 137 117 8 168 198 299 22 344 236 241 271 266 305 338 276 245 263 271 284 294 300 302 305 305 304 297
49 51 50 49 50 52 56 60 64 70 80 84 87 89 95 110 112 126 125 128 117 109 138 130 129 134 131 142 172 318 222 238 222 256 277 271 270 274 282 293 302 309 308 303 305 305 304
44 46 52 48 49 50 51 49 54 64 83 97 94 92 96 103 125 139 128 116 96 117 122 133 131 129 124 133 130 152 191 203 224 212 239 266 264 284 298 308 306 316 320 318 309 311 311
36 42 45 51 47 49 48 42 31 48 80 111 106 94 90 96 114 124 114 99 101 115 125 124 129 122 125 129 134 142 147 154 183 205 215 276 282 263 299 306 326 329 325 339 327 327 322
29 38 39 47 46 47 46 39 25 6 67 95 93 98 87 101 109 109 105 98 106 121 122 123 117 124 122 131 132 137 142 150 153 164 170 182 306 220 240 261 274 273 233 11 329 354 349
21 30 37 35 41 46 38 8 9 12 360 80 93 96 97 106 109 98 97 102 110 123 126 120 116 118 122 124 128 131 137 147 151 155 164 162 156 159 174 168 160 167 172 170 169 159 157
11 18 27 25 30 36 31 353 345 357 43 81 87 99 106 112 102 104 106 109 112 116 121 121 123 122 120 126 125 127 132 144 149 146 146 163 156 150 163 184 173 174 165 133 115 105 96
5 8 13 13 6 342 341 327 332 333 57 74 87 98 96 97 103 106 112 120 125 122 122 121 121 124 129 128 126 132 142 149 138 143 148 153 158 151 169 196 211 169 151 119 28 12 107
357 3 4 2 356 337 336 334 328 328 53 66 80 87 90 78 93 102 113 115 119 132 140 137 134 128 128 131 134 137 139 139 138 145 138 128 136 159 172 170 55 142 141 156 154 174 191
348 352 355 356 351 343 334 333 332 334 42 61 61 69 80 87 92 100 108 117 121 122 130 137 150 155 145 130 136 138 140 134 125 128 117 136 178 189 217 231 229 226 217 193 203 208 213
333 342 348 350 349 344 338 334 333 335 22 33 50 52 65 71 86 89 96 111 113 124 129 135 137 126 143 140 148 143 148 135 141 108 105 96 165 188 238 236 223 230 227 221 223 225 235
330 334 337 340 344 341 339 336 337 338 1 16 28 41 58 54 59 60 70 73 86 87 93 105 119 143 167 184 187 200 191 179 135 78 78 32 64 36 198 254 268 246 236 186 200 277 231
325 328 335 337 341 341 335 334 337 342 357 2 7 17 21 32 32 33 44 55 61 75 69 51 56 71 47 31 138 165 196 210 205 200 34 18 29 24 325 289 18 10 349 344 357 330 244
319 324 328 331 333 335 335 335 337 341 346 359 1 353 356 360 12 18 25 30 33 35 44 91 53 19 3 351 23 23 34 37 48 49 160 41 12 11 11 2 273 335 359 2 3 352 338
314 317 320 325 330 331 331 332 334 337 342 349 352 354 346 343 350 350 356 357 358 357 357 19 15 18 357 5 1 1 4 357 8 13 2 38 26 11 357 350 353 354 346 355 349 334 9
307 310 313 314 320 324 326 329 332 335 339 337 335 341 335 332 335 347 339 339 345 348 345 346 354 2 359 356 349 350 348 350 345 350 355 359 353 314 326 339 337 328 331 350 337 335 336
302 304 307 311 313 315 319 322 324 325 332 328 324 330 325 323 320 333 335 336 331 332 331 342 339 340 345 344 344 341 342 344 338 340 341 340 341 336 340 337 336 2 340 331 330 328 326
305 303 304 306 308 309 311 315 321 321 326 330 322 333 331 318 312 318 319 318 319 324 325 327 329 340 340 335 334 333 330 329 328 323 335 324 325 328 320 329 330 332 325 326 325 320 321